Location: Palo Alto
(37.4420°N, 122.1420°W)
Time: 03:12:25
(UTC-07:00)

ISS - All Passes

Search period start: 25 October 2014 00:00
Search period end: 03 November 2014 23:00
Orbit: 412 x 416 km, 51.6° (Epoch: 25 October)

Date Brightness Start Highest point End Pass type
(mag) Time Alt. Az. Time Alt. Az. Time Alt. Az.
25 Oct - 12:27:01 10° SW 12:30:16 56° SE 12:33:32 10° ENE daylight
25 Oct - 14:04:43 10° WNW 14:07:11 19° NNW 14:09:39 10° NNE daylight
25 Oct - 18:57:30 10° NNW 19:00:34 33° NNE 19:03:37 10° E visible
25 Oct - 20:34:24 10° WNW 20:37:08 23° SW 20:39:51 10° S visible
26 Oct - 11:38:15 10° SSW 11:41:09 28° SE 11:44:04 10° ENE daylight
26 Oct - 13:14:52 10° W 13:17:48 28° NNW 13:20:45 10° NNE daylight
26 Oct - 18:08:33 10° NNW 18:11:12 21° NNE 18:13:50 10° E daylight
26 Oct - 19:44:49 10° WNW 19:48:01 44° SW 19:51:12 10° SSE visible
27 Oct - 10:50:00 10° SSE 10:52:03 16° SE 10:54:07 10° E daylight
27 Oct - 12:25:14 10° WSW 12:28:27 47° NW 12:31:41 10° NE daylight
27 Oct - 14:04:44 10° NW 14:05:48 11° NNW 14:06:52 10° N daylight
27 Oct - 17:19:40 10° NNW 17:21:43 15° NNE 17:23:46 10° ENE daylight
27 Oct - 18:55:28 10° NW 18:58:48 89° SW 19:02:08 10° SE visible
28 Oct - 11:35:49 10° SW 11:39:08 88° NW 11:42:28 10° NE daylight
28 Oct - 13:14:14 10° WNW 13:16:14 15° NNW 13:18:13 10° NNE daylight
28 Oct - 16:31:00 10° N 16:32:09 11° NNE 16:33:18 10° NE daylight
28 Oct - 18:06:14 10° NW 18:09:29 48° NE 18:12:43 10° ESE daylight
28 Oct - 19:43:52 10° W 19:45:51 15° SW 19:47:50 10° SSW visible
29 Oct - 10:46:39 10° SSW 10:49:51 46° SE 10:53:03 10° ENE daylight
29 Oct - 12:24:05 10° W 12:26:41 21° NNW 12:29:17 10° NNE daylight
29 Oct - 17:17:05 10° NNW 17:20:03 29° NNE 17:23:00 10° E daylight
29 Oct - 18:53:47 10° WNW 18:56:40 27° SW 18:59:33 10° SSE visible
30 Oct - 09:57:51 10° S 10:00:35 24° SE 10:03:20 10° ENE daylight
30 Oct - 11:34:08 10° W 11:37:09 32° NNW 11:40:11 10° NNE daylight
30 Oct - 16:28:00 10° NNW 16:30:30 19° NNE 16:32:59 10° ENE daylight
30 Oct - 18:04:07 10° WNW 18:07:23 54° SW 18:10:38 10° SE daylight
31 Oct - 09:09:45 10° SSE 09:11:21 13° SE 09:12:58 10° E daylight
31 Oct - 10:44:24 10° WSW 10:47:40 55° NW 10:50:57 10° NE daylight
31 Oct - 12:23:34 10° NW 12:24:56 12° NNW 12:26:18 10° N daylight
31 Oct - 15:39:01 10° NNW 15:40:51 14° NNE 15:42:40 10° NE daylight
31 Oct - 17:14:39 10° NW 17:18:00 77° NE 17:21:18 10° SE daylight
01 Nov - 09:54:54 10° SW 09:58:13 77° SE 10:01:32 10° NE daylight
01 Nov - 11:33:03 10° WNW 11:35:13 16° NNW 11:37:24 10° NNE daylight
01 Nov - 14:50:22 10° N 14:51:06 11° NNE 14:51:49 10° NNE daylight
01 Nov - 16:25:18 10° NW 16:28:29 41° NE 16:31:39 10° ESE daylight
01 Nov - 18:02:36 10° W 18:04:55 18° SW 18:07:14 10° S daylight
02 Nov - 08:05:41 10° SSW 08:08:47 38° SE 08:11:54 10° ENE daylight
02 Nov - 09:42:48 10° W 09:45:32 23° NNW 09:48:16 10° NNE daylight
02 Nov - 14:36:02 10° NNW 14:38:52 25° NNE 14:41:42 10° E daylight
02 Nov - 16:12:32 10° WNW 16:15:34 33° SW 16:18:35 10° SSE daylight
03 Nov - 07:16:53 10° S 07:19:23 20° SE 07:21:54 10° E daylight
03 Nov - 08:52:46 10° WSW 08:55:52 37° NW 08:58:59 10° NE daylight
03 Nov - 13:46:50 10° NNW 13:49:09 17° NNE 13:51:27 10° ENE daylight
03 Nov - 15:22:48 10° NW 15:26:06 67° SW 15:29:23 10° SE daylight
